Location: Pacheco
(37.9835°N, 122.0752°W)
Time: 23:36:36
(UTC+00:00)

Cosmos 1867 - Pass Details

Date: 13 April 2024
Orbit: 772 x 802 km, 65.0° (Epoch: 21 May)

Event Time Altitude Azimuth Distance (km) Brightness Sun altitude
Rises 12:09:37 0° 320° (NW) 3,316 6.7 -16.6°
Reaches altitude 10° 12:12:15 10° 311° (NW) 2,380 5.8 -16.2°
Maximum altitude 12:17:08 34° 248° (WSW) 1,293 4.1 -15.3°
Drops below altitude 10° 12:21:59 10° 185° (S) 2,357 5.7 -14.4°
Sets 12:24:34 0° 176° (S) 3,278 6.6 -14.0°
